QPF
0.00 0.00 0.01 0.02 0.02 0.02 0.02 0.01 0.02 0.02 0.02 0.03 0.04 0.04 0.02 0.01 0.02 0.02 0.02 0.03 0.03 0.03 0.03 0.04 0.04 0.03 0.03 0.03 0.03 0.03 0.03 0.02 0.02 0.02 0.02 0.03 0.03 0.03 0.02 0.02 0.01 0.01 0.03
0.00 0.00 0.01 0.02 0.02 0.02 0.01 0.01 0.01 0.01 0.02 0.03 0.04 0.03 0.02 0.02 0.02 0.03 0.03 0.03 0.04 0.03 0.04 0.05 0.04 0.03 0.02 0.02 0.02 0.02 0.02 0.01 0.01 0.01 0.01 0.01 0.02 0.04 0.04 0.03 0.02 0.02 0.03
0.00 0.00 0.01 0.02 0.02 0.01 0.01 0.01 0.01 0.01 0.01 0.02 0.03 0.02 0.02 0.02 0.02 0.03 0.02 0.03 0.04 0.04 0.05 0.04 0.04 0.03 0.01 0.01 0.01 0.01 0.01 0.01 0.01 0.01 0.01 0.00 0.01 0.03 0.03 0.03 0.03 0.03 0.03
0.00 0.00 0.00 0.01 0.02 0.01 0.01 0.01 0.01 0.01 0.02 0.01 0.02 0.02 0.02 0.02 0.02 0.02 0.03 0.03 0.04 0.04 0.04 0.03 0.02 0.01 0.01 0.00 0.01 0.01 0.01 0.01 0.01 0.01 0.00 0.00 0.00 0.03 0.03 0.03 0.04 0.04 0.03
0.00 0.00 0.00 0.01 0.01 0.01 0.01 0.01 0.01 0.01 0.02 0.01 0.02 0.02 0.02 0.02 0.02 0.02 0.03 0.04 0.04 0.03 0.03 0.02 0.01 0.01 0.01 0.01 0.01 0.02 0.01 0.01 0.01 0.00 0.00 0.00 0.00 0.03 0.03 0.03 0.03 0.03 0.03
0.00 0.00 0.00 0.01 0.01 0.01 0.01 0.01 0.01 0.01 0.03 0.02 0.01 0.02 0.01 0.01 0.02 0.02 0.02 0.03 0.03 0.02 0.01 0.01 0.01 0.01 0.01 0.01 0.01 0.01 0.01 0.00 0.00 0.00 0.00 0.00 0.00 0.02 0.02 0.02 0.02 0.02 0.03
0.00 0.00 0.01 0.01 0.01 0.01 0.01 0.01 0.01 0.02 0.03 0.03 0.02 0.02 0.03 0.02 0.02 0.02 0.02 0.03 0.03 0.02 0.01 0.01 0.01 0.01 0.01 0.01 0.00 0.00 0.00 0.00 0.00 0.00 0.00 0.00 0.01 0.03 0.02 0.01 0.02 0.02 0.02
0.00 0.00 0.01 0.01 0.02 0.01 0.01 0.01 0.02 0.02 0.02 0.03 0.02 0.02 0.03 0.03 0.02 0.02 0.03 0.04 0.03 0.02 0.02 0.02 0.02 0.01 0.01 0.00 0.00 0.00 0.00 0.00 0.00 0.00 0.00 0.00 0.02 0.03 0.02 0.02 0.02 0.02 0.02
0.00 0.00 0.00 0.01 0.01 0.01 0.01 0.01 0.02 0.03 0.03 0.03 0.02 0.03 0.02 0.04 0.03 0.03 0.03 0.04 0.03 0.02 0.01 0.02 0.02 0.02 0.02 0.01 0.00 0.00 0.00 0.00 0.00 0.00 0.00 0.01 0.03 0.03 0.01 0.01 0.01 0.02 0.02
0.00 0.00 0.00 0.00 0.01 0.01 0.01 0.01 0.02 0.02 0.02 0.02 0.02 0.02 0.03 0.05 0.05 0.04 0.03 0.04 0.03 0.02 0.01 0.01 0.01 0.02 0.03 0.03 0.01 0.00 0.00 0.00 0.00 0.00 0.00 0.01 0.03 0.04 0.02 0.02 0.01 0.02 0.02
0.00 0.00 0.00 0.00 0.01 0.01 0.01 0.01 0.02 0.01 0.01 0.01 0.01 0.03 0.04 0.03 0.03 0.02 0.03 0.04 0.03 0.03 0.02 0.01 0.01 0.01 0.02 0.02 0.01 0.01 0.00 0.00 0.00 0.00 0.00 0.01 0.03 0.04 0.03 0.02 0.02 0.02 0.02
0.00 0.00 0.00 0.00 0.01 0.01 0.01 0.01 0.02 0.02 0.01 0.01 0.01 0.01 0.03 0.03 0.02 0.02 0.03 0.04 0.03 0.03 0.02 0.01 0.00 0.01 0.01 0.01 0.01 0.01 0.00 0.00 0.00 0.00 0.00 0.01 0.03 0.03 0.02 0.02 0.02 0.02 0.02
0.00 0.00 0.00 0.01 0.01 0.01 0.01 0.02 0.02 0.02 0.01 0.01 0.02 0.01 0.02 0.02 0.02 0.02 0.01 0.02 0.03 0.02 0.01 0.01 0.00 0.00 0.01 0.01 0.01 0.00 0.00 0.00 0.00 0.00 0.00 0.01 0.02 0.02 0.02 0.01 0.01 0.01 0.01
0.00 0.00 0.00 0.01 0.01 0.01 0.01 0.02 0.02 0.02 0.01 0.02 0.02 0.02 0.02 0.02 0.02 0.02 0.02 0.02 0.02 0.02 0.01 0.00 0.01 0.00 0.00 0.01 0.00 0.00 0.00 0.00 0.00 0.00 0.00 0.01 0.02 0.02 0.02 0.02 0.02 0.01 0.02
0.00 0.00 0.01 0.01 0.02 0.02 0.02 0.02 0.02 0.01 0.02 0.02 0.02 0.03 0.03 0.02 0.01 0.02 0.03 0.03 0.02 0.02 0.02 0.01 0.01 0.00 0.00 0.00 0.01 0.00 0.00 0.00 0.00 0.00 0.00 0.00 0.01 0.02 0.02 0.03 0.02 0.02 0.02
0.00 0.00 0.01 0.01 0.02 0.03 0.04 0.03 0.02 0.01 0.02 0.03 0.03 0.02 0.02 0.02 0.01 0.02 0.02 0.03 0.03 0.02 0.02 0.01 0.01 0.01 0.01 0.00 0.00 0.01 0.01 0.00 0.00 0.00 0.00 0.00 0.00 0.01 0.01 0.02 0.02 0.02 0.02
0.00 0.01 0.01 0.01 0.02 0.03 0.04 0.04 0.03 0.03 0.03 0.04 0.03 0.02 0.02 0.02 0.02 0.02 0.02 0.03 0.03 0.03 0.02 0.02 0.02 0.01 0.01 0.01 0.01 0.01 0.01 0.01 0.00 0.00 0.01 0.01 0.00 0.00 0.01 0.01 0.01 0.01 0.02
0.01 0.01 0.01 0.01 0.02 0.03 0.04 0.05 0.04 0.05 0.05 0.04 0.03 0.02 0.02 0.02 0.02 0.02 0.02 0.02 0.03 0.03 0.02 0.02 0.02 0.02 0.02 0.01 0.01 0.01 0.01 0.01 0.01 0.00 0.00 0.00 0.01 0.01 0.01 0.01 0.01 0.01 0.02
0.01 0.01 0.02 0.02 0.03 0.04 0.04 0.05 0.05 0.05 0.06 0.05 0.03 0.02 0.02 0.02 0.02 0.01 0.02 0.03 0.04 0.03 0.03 0.02 0.02 0.02 0.02 0.02 0.01 0.01 0.01 0.01 0.01 0.00 0.00 0.00 0.00 0.00 0.01 0.01 0.01 0.01 0.01
0.02 0.03 0.03 0.03 0.03 0.05 0.05 0.04 0.05 0.06 0.06 0.05 0.04 0.03 0.03 0.02 0.01 0.01 0.01 0.02 0.03 0.04 0.04 0.03 0.02 0.03 0.03 0.02 0.01 0.01 0.01 0.01 0.01 0.01 0.01 0.01 0.01 0.01 0.01 0.01 0.00 0.00 0.00
0.03 0.04 0.04 0.04 0.04 0.05 0.05 0.04 0.03 0.04 0.05 0.05 0.05 0.05 0.04 0.03 0.02 0.02 0.02 0.02 0.02 0.03 0.04 0.03 0.02 0.03 0.04 0.03 0.02 0.02 0.01 0.01 0.01 0.00 0.00 0.01 0.01 0.01 0.01 0.01 0.01 0.00 0.00
0.03 0.03 0.04 0.04 0.05 0.05 0.05 0.05 0.04 0.03 0.02 0.03 0.04 0.04 0.04 0.04 0.03 0.03 0.03 0.03 0.03 0.02 0.02 0.02 0.02 0.02 0.03 0.04 0.04 0.03 0.02 0.02 0.01 0.01 0.00 0.00 0.00 0.00 0.01 0.01 0.01 0.00 0.00
0.03 0.04 0.04 0.05 0.06 0.05 0.04 0.04 0.04 0.04 0.02 0.02 0.03 0.03 0.02 0.02 0.02 0.02 0.03 0.03 0.04 0.03 0.02 0.02 0.03 0.03 0.02 0.03 0.03 0.03 0.03 0.02 0.02 0.01 0.00 0.00 0.00 0.00 0.00 0.00 0.00 0.00 0.00
0.02 0.03 0.05 0.06 0.06 0.06 0.05 0.03 0.03 0.03 0.04 0.02 0.02 0.02 0.01 0.01 0.01 0.01 0.02 0.02 0.03 0.03 0.02 0.02 0.02 0.02 0.02 0.02 0.02 0.03 0.03 0.02 0.02 0.02 0.01 0.01 0.01 0.01 0.01 0.01 0.01 0.00 0.00
0.02 0.03 0.04 0.05 0.06 0.06 0.06 0.03 0.02 0.02 0.02 0.04 0.04 0.03 0.02 0.01 0.01 0.01 0.01 0.01 0.02 0.02 0.02 0.02 0.02 0.02 0.02 0.02 0.02 0.02 0.02 0.02 0.02 0.02 0.01 0.01 0.01 0.01 0.01 0.01 0.01 0.01 0.01
0.01 0.03 0.04 0.04 0.05 0.06 0.07 0.06 0.03 0.02 0.02 0.02 0.04 0.05 0.03 0.02 0.01 0.01 0.01 0.01 0.01 0.02 0.02 0.03 0.02 0.02 0.01 0.01 0.01 0.02 0.02 0.01 0.01 0.01 0.02 0.02 0.02 0.01 0.01 0.01 0.01 0.01 0.01
MSLP
1019.67 1019.33 1018.96 1018.64 1018.46 1018.42 1018.53 1018.74 1019.01 1019.28 1019.52 1019.72 1019.88 1020.02 1020.17 1020.32 1020.47 1020.60 1020.70 1020.74 1020.74 1020.69 1020.62 1020.56 1020.52 1020.53 1020.57 1020.64 1020.72 1020.80 1020.87 1020.92 1020.96 1021.01 1021.07 1021.14 1021.21 1021.27 1021.31 1021.30 1021.26 1021.18 1021.10
1019.44 1019.14 1018.83 1018.58 1018.45 1018.47 1018.63 1018.87 1019.16 1019.46 1019.73 1019.97 1020.18 1020.38 1020.57 1020.76 1020.92 1021.06 1021.14 1021.17 1021.14 1021.08 1021.01 1020.96 1020.94 1020.95 1020.99 1021.04 1021.08 1021.10 1021.11 1021.12 1021.14 1021.18 1021.27 1021.38 1021.51 1021.63 1021.70 1021.72 1021.68 1021.60 1021.50
1019.24 1018.98 1018.73 1018.56 1018.51 1018.59 1018.79 1019.07 1019.39 1019.70 1019.99 1020.26 1020.50 1020.73 1020.95 1021.15 1021.33 1021.45 1021.50 1021.50 1021.45 1021.39 1021.32 1021.28 1021.28 1021.31 1021.35 1021.39 1021.41 1021.40 1021.37 1021.34 1021.33 1021.37 1021.47 1021.62 1021.79 1021.95 1022.07 1022.11 1022.09 1022.01 1021.91
1019.12 1018.91 1018.72 1018.62 1018.65 1018.80 1019.05 1019.35 1019.68 1019.99 1020.29 1020.56 1020.81 1021.05 1021.27 1021.47 1021.63 1021.73 1021.75 1021.73 1021.66 1021.59 1021.54 1021.53 1021.56 1021.62 1021.69 1021.74 1021.75 1021.72 1021.66 1021.60 1021.57 1021.61 1021.71 1021.87 1022.06 1022.25 1022.39 1022.46 1022.45 1022.39 1022.30
1019.10 1018.93 1018.81 1018.79 1018.89 1019.10 1019.38 1019.70 1020.02 1020.32 1020.59 1020.84 1021.08 1021.31 1021.52 1021.71 1021.84 1021.92 1021.92 1021.87 1021.80 1021.73 1021.70 1021.73 1021.80 1021.91 1022.01 1022.09 1022.11 1022.08 1022.01 1021.94 1021.89 1021.91 1022.00 1022.15 1022.34 1022.52 1022.66 1022.74 1022.76 1022.72 1022.66
1019.19 1019.06 1019.00 1019.05 1019.22 1019.47 1019.77 1020.09 1020.39 1020.65 1020.89 1021.11 1021.32 1021.53 1021.72 1021.89 1022.01 1022.07 1022.06 1022.00 1021.93 1021.88 1021.87 1021.93 1022.05 1022.20 1022.35 1022.46 1022.51 1022.50 1022.43 1022.35 1022.29 1022.28 1022.34 1022.46 1022.62 1022.78 1022.91 1022.99 1023.01 1023.00 1022.97
1019.37 1019.28 1019.28 1019.39 1019.61 1019.90 1020.21 1020.51 1020.78 1021.00 1021.19 1021.37 1021.55 1021.74 1021.92 1022.09 1022.20 1022.25 1022.24 1022.19 1022.13 1022.09 1022.11 1022.20 1022.35 1022.53 1022.72 1022.86 1022.94 1022.94 1022.89 1022.81 1022.74 1022.70 1022.73 1022.80 1022.92 1023.04 1023.14 1023.20 1023.23 1023.24 1023.24
1019.59 1019.55 1019.61 1019.78 1020.05 1020.36 1020.67 1020.95 1021.18 1021.36 1021.51 1021.66 1021.83 1022.00 1022.19 1022.36 1022.48 1022.54 1022.54 1022.50 1022.44 1022.41 1022.44 1022.54 1022.70 1022.90 1023.10 1023.27 1023.37 1023.39 1023.36 1023.29 1023.21 1023.16 1023.15 1023.18 1023.25 1023.32 1023.38 1023.42 1023.45 1023.47 1023.49
1019.81 1019.82 1019.95 1020.19 1020.50 1020.83 1021.15 1021.41 1021.62 1021.77 1021.90 1022.03 1022.19 1022.37 1022.57 1022.75 1022.90 1022.98 1022.99 1022.95 1022.90 1022.87 1022.89 1022.97 1023.12 1023.31 1023.50 1023.67 1023.78 1023.83 1023.81 1023.76 1023.69 1023.64 1023.60 1023.60 1023.62 1023.64 1023.67 1023.68 1023.70 1023.71 1023.75
1019.99 1020.08 1020.28 1020.58 1020.94 1021.30 1021.63 1021.89 1022.08 1022.22 1022.34 1022.48 1022.65 1022.86 1023.07 1023.28 1023.44 1023.54 1023.56 1023.53 1023.47 1023.42 1023.41 1023.46 1023.57 1023.73 1023.90 1024.05 1024.16 1024.22 1024.23 1024.20 1024.15 1024.11 1024.07 1024.05 1024.04 1024.03 1024.02 1024.01 1024.00 1024.01 1024.05
1020.13 1020.30 1020.58 1020.95 1021.35 1021.75 1022.09 1022.36 1022.56 1022.71 1022.85 1023.01 1023.20 1023.43 1023.67 1023.90 1024.07 1024.18 1024.20 1024.16 1024.09 1024.01 1023.97 1023.98 1024.04 1024.15 1024.28 1024.41 1024.52 1024.59 1024.62 1024.62 1024.60 1024.57 1024.55 1024.52 1024.50 1024.46 1024.43 1024.40 1024.38 1024.38 1024.41
1020.22 1020.48 1020.84 1021.27 1021.72 1022.14 1022.51 1022.80 1023.02 1023.20 1023.37 1023.56 1023.78 1024.03 1024.29 1024.52 1024.70 1024.80 1024.82 1024.77 1024.68 1024.58 1024.51 1024.48 1024.51 1024.58 1024.67 1024.78 1024.87 1024.95 1025.00 1025.03 1025.04 1025.04 1025.03 1025.02 1024.99 1024.95 1024.90 1024.86 1024.82 1024.81 1024.83
1020.31 1020.64 1021.06 1021.53 1022.01 1022.46 1022.85 1023.16 1023.42 1023.64 1023.85 1024.08 1024.33 1024.59 1024.86 1025.09 1025.25 1025.34 1025.35 1025.29 1025.19 1025.09 1025.00 1024.96 1024.96 1025.01 1025.08 1025.17 1025.26 1025.34 1025.41 1025.46 1025.50 1025.52 1025.54 1025.53 1025.51 1025.47 1025.42 1025.36 1025.32 1025.30 1025.30
1020.44 1020.81 1021.25 1021.73 1022.22 1022.67 1023.08 1023.42 1023.71 1023.98 1024.23 1024.50 1024.78 1025.05 1025.31 1025.52 1025.66 1025.73 1025.73 1025.67 1025.58 1025.50 1025.43 1025.40 1025.42 1025.47 1025.55 1025.63 1025.72 1025.81 1025.88 1025.94 1026.00 1026.04 1026.06 1026.07 1026.05 1026.01 1025.95 1025.89 1025.84 1025.81 1025.80
1020.65 1021.00 1021.42 1021.87 1022.33 1022.77 1023.17 1023.54 1023.86 1024.18 1024.48 1024.79 1025.09 1025.37 1025.61 1025.80 1025.92 1025.97 1025.96 1025.92 1025.86 1025.81 1025.80 1025.82 1025.88 1025.97 1026.07 1026.18 1026.27 1026.36 1026.43 1026.50 1026.55 1026.59 1026.61 1026.61 1026.59 1026.54 1026.48 1026.42 1026.36 1026.32 1026.31
1020.97 1021.25 1021.59 1021.96 1022.36 1022.75 1023.13 1023.51 1023.87 1024.23 1024.59 1024.94 1025.27 1025.55 1025.78 1025.95 1026.04 1026.08 1026.08 1026.06 1026.05 1026.06 1026.12 1026.23 1026.36 1026.51 1026.66 1026.79 1026.91 1027.00 1027.07 1027.13 1027.16 1027.19 1027.19 1027.18 1027.14 1027.08 1027.01 1026.94 1026.87 1026.83 1026.82
1021.41 1021.56 1021.77 1022.02 1022.31 1022.64 1022.99 1023.37 1023.77 1024.18 1024.59 1024.99 1025.35 1025.65 1025.87 1026.02 1026.10 1026.13 1026.14 1026.15 1026.20 1026.29 1026.44 1026.63 1026.85 1027.07 1027.28 1027.46 1027.60 1027.70 1027.76 1027.80 1027.82 1027.81 1027.79 1027.76 1027.70 1027.62 1027.54 1027.46 1027.39 1027.34 1027.32
1021.94 1021.92 1021.96 1022.06 1022.23 1022.48 1022.79 1023.17 1023.60 1024.07 1024.54 1024.99 1025.38 1025.70 1025.93 1026.08 1026.15 1026.18 1026.20 1026.25 1026.35 1026.51 1026.74 1027.02 1027.32 1027.62 1027.88 1028.10 1028.27 1028.38 1028.45 1028.47 1028.47 1028.45 1028.41 1028.35 1028.28 1028.19 1028.09 1028.00 1027.92 1027.86 1027.84
1022.52 1022.31 1022.16 1022.10 1022.15 1022.31 1022.59 1022.96 1023.42 1023.94 1024.47 1024.97 1025.41 1025.76 1026.01 1026.16 1026.24 1026.27 1026.31 1026.38 1026.52 1026.74 1027.03 1027.37 1027.73 1028.09 1028.41 1028.67 1028.86 1029.00 1029.07 1029.10 1029.10 1029.07 1029.02 1028.95 1028.87 1028.77 1028.67 1028.56 1028.47 1028.41 1028.37
1023.09 1022.69 1022.38 1022.17 1022.10 1022.18 1022.42 1022.79 1023.27 1023.83 1024.41 1024.96 1025.45 1025.83 1026.10 1026.27 1026.36 1026.41 1026.45 1026.55 1026.70 1026.95 1027.27 1027.64 1028.04 1028.44 1028.79 1029.09 1029.31 1029.48 1029.58 1029.63 1029.64 1029.63 1029.59 1029.53 1029.46 1029.36 1029.26 1029.15 1029.06 1028.98 1028.92
1023.60 1023.06 1022.60 1022.27 1022.11 1022.12 1022.32 1022.67 1023.16 1023.74 1024.35 1024.95 1025.47 1025.89 1026.19 1026.38 1026.49 1026.55 1026.60 1026.70 1026.87 1027.11 1027.44 1027.82 1028.22 1028.63 1029.00 1029.32 1029.58 1029.78 1029.92 1030.01 1030.07 1030.09 1030.09 1030.06 1030.01 1029.94 1029.84 1029.74 1029.64 1029.55 1029.48
1024.03 1023.39 1022.84 1022.43 1022.19 1022.14 1022.29 1022.62 1023.09 1023.66 1024.28 1024.89 1025.43 1025.88 1026.21 1026.43 1026.56 1026.64 1026.71 1026.81 1026.97 1027.20 1027.51 1027.87 1028.26 1028.65 1029.03 1029.36 1029.65 1029.89 1030.08 1030.22 1030.34 1030.42 1030.47 1030.49 1030.48 1030.44 1030.37 1030.28 1030.19 1030.09 1030.01
1024.40 1023.71 1023.10 1022.64 1022.35 1022.25 1022.34 1022.62 1023.04 1023.57 1024.16 1024.75 1025.29 1025.75 1026.11 1026.36 1026.53 1026.64 1026.74 1026.84 1027.00 1027.21 1027.48 1027.80 1028.16 1028.53 1028.90 1029.24 1029.55 1029.82 1030.06 1030.27 1030.45 1030.59 1030.70 1030.78 1030.82 1030.82 1030.79 1030.72 1030.64 1030.55 1030.46
1024.73 1024.04 1023.43 1022.94 1022.61 1022.44 1022.46 1022.65 1022.99 1023.45 1023.97 1024.51 1025.03 1025.49 1025.86 1026.15 1026.37 1026.53 1026.66 1026.79 1026.94 1027.14 1027.38 1027.66 1027.98 1028.32 1028.66 1029.00 1029.32 1029.62 1029.90 1030.16 1030.39 1030.60 1030.77 1030.91 1030.99 1031.04 1031.04 1031.01 1030.95 1030.87 1030.80
1025.10 1024.44 1023.84 1023.34 1022.96 1022.73 1022.66 1022.74 1022.96 1023.30 1023.72 1024.19 1024.66 1025.10 1025.50 1025.83 1026.10 1026.31 1026.49 1026.66 1026.83 1027.02 1027.24 1027.49 1027.77 1028.07 1028.39 1028.71 1029.03 1029.34 1029.65 1029.94 1030.21 1030.46 1030.68 1030.86 1030.99 1031.08 1031.12 1031.12 1031.10 1031.05 1030.99
1025.56 1024.94 1024.36 1023.84 1023.42 1023.11 1022.93 1022.88 1022.96 1023.16 1023.46 1023.84 1024.25 1024.67 1025.07 1025.44 1025.77 1026.05 1026.29 1026.50 1026.70 1026.90 1027.11 1027.34 1027.58 1027.85 1028.14 1028.44 1028.74 1029.05 1029.36 1029.66 1029.95 1030.22 1030.46 1030.67 1030.83 1030.96 1031.04 1031.08 1031.09 1031.08 1031.06
Thickness
5675 5678 5680 5681 5682 5683 5684 5685 5686 5686 5687 5687 5688 5689 5690 5690 5691 5692 5693 5693 5694 5694 5695 5696 5697 5697 5698 5698 5698 5699 5699 5699 5699 5700 5700 5701 5701 5701 5701 5701 5702 5702 5702
5676 5676 5677 5678 5679 5680 5681 5681 5682 5682 5683 5683 5684 5685 5686 5686 5687 5688 5689 5689 5690 5691 5691 5692 5692 5693 5694 5694 5694 5694 5695 5695 5695 5695 5696 5696 5697 5698 5698 5698 5698 5698 5699
5673 5673 5674 5675 5676 5676 5677 5677 5678 5678 5679 5680 5680 5681 5681 5682 5683 5684 5684 5685 5686 5686 5687 5687 5688 5688 5689 5690 5690 5690 5690 5691 5690 5691 5691 5692 5693 5694 5694 5694 5694 5695 5695
5670 5670 5670 5671 5672 5672 5673 5673 5674 5674 5675 5675 5676 5677 5677 5678 5678 5679 5680 5680 5681 5682 5682 5683 5683 5684 5684 5685 5686 5686 5686 5686 5686 5687 5687 5688 5689 5689 5690 5690 5690 5690 5690
5666 5666 5666 5667 5667 5668 5669 5669 5669 5670 5670 5671 5672 5672 5673 5673 5674 5674 5675 5675 5676 5677 5677 5678 5678 5679 5679 5680 5681 5682 5682 5682 5682 5683 5683 5684 5684 5685 5685 5686 5686 5686 5686
5661 5661 5661 5662 5662 5663 5664 5664 5665 5665 5666 5667 5667 5667 5668 5668 5669 5669 5670 5671 5671 5672 5672 5673 5673 5674 5674 5675 5676 5677 5677 5677 5678 5678 5679 5679 5680 5680 5681 5681 5681 5681 5681
5656 5656 5656 5657 5657 5658 5658 5659 5659 5660 5661 5662 5662 5662 5663 5663 5663 5664 5665 5666 5666 5666 5667 5667 5668 5668 5669 5670 5671 5671 5672 5672 5673 5673 5674 5675 5675 5676 5676 5676 5677 5677 5677
5650 5651 5651 5651 5651 5652 5652 5653 5654 5654 5655 5656 5656 5657 5657 5658 5658 5658 5659 5660 5661 5661 5661 5662 5662 5663 5664 5665 5666 5666 5667 5667 5667 5668 5669 5670 5670 5671 5672 5672 5672 5672 5672
5643 5644 5644 5645 5645 5645 5646 5647 5647 5648 5648 5649 5650 5651 5651 5651 5652 5652 5653 5654 5655 5655 5655 5656 5657 5657 5658 5659 5660 5660 5661 5662 5662 5663 5663 5664 5665 5666 5666 5666 5667 5667 5667
5636 5637 5637 5638 5638 5639 5639 5640 5641 5641 5641 5642 5643 5643 5644 5645 5645 5646 5647 5648 5648 5649 5649 5650 5650 5651 5652 5653 5653 5654 5655 5656 5656 5657 5658 5658 5659 5660 5661 5661 5661 5662 5662
5628 5629 5630 5631 5631 5632 5633 5633 5634 5634 5635 5635 5635 5636 5637 5637 5638 5639 5640 5641 5641 5642 5642 5643 5644 5645 5645 5646 5647 5647 5648 5649 5650 5651 5652 5653 5654 5655 5655 5656 5656 5656 5656
5619 5621 5622 5623 5624 5625 5625 5626 5626 5627 5627 5628 5628 5628 5629 5629 5630 5632 5633 5633 5634 5634 5635 5636 5636 5637 5638 5639 5640 5640 5641 5642 5643 5644 5645 5646 5648 5648 5649 5650 5650 5650 5650
5613 5614 5615 5616 5617 5618 5618 5618 5618 5619 5620 5620 5620 5621 5621 5622 5622 5623 5624 5626 5626 5627 5627 5628 5629 5630 5631 5632 5632 5633 5634 5635 5636 5637 5638 5639 5641 5641 5642 5643 5643 5644 5644
5605 5606 5607 5609 5610 5610 5611 5611 5611 5611 5612 5612 5613 5613 5614 5614 5615 5616 5617 5617 5618 5619 5619 5620 5621 5622 5623 5624 5625 5626 5626 5627 5628 5629 5630 5631 5633 5634 5634 5635 5636 5637 5637
5597 5598 5599 5601 5602 5602 5603 5603 5603 5604 5604 5605 5605 5606 5606 5607 5607 5608 5608 5609 5610 5611 5612 5612 5613 5614 5615 5616 5616 5617 5617 5618 5619 5620 5622 5623 5624 5625 5626 5627 5628 5629 5629
5589 5590 5591 5592 5593 5594 5595 5595 5596 5596 5596 5597 5597 5598 5598 5599 5599 5600 5600 5601 5602 5603 5603 5604 5605 5606 5606 5607 5608 5608 5608 5609 5610 5611 5612 5613 5614 5616 5617 5618 5619 5620 5621
5581 5582 5583 5584 5585 5586 5586 5587 5587 5587 5588 5588 5588 5589 5589 5590 5591 5592 5592 5592 5593 5594 5595 5595 5596 5596 5596 5597 5598 5598 5599 5600 5601 5602 5602 5603 5604 5606 5607 5608 5610 5611 5612
5572 5573 5574 5575 5576 5577 5578 5579 5578 5578 5578 5579 5579 5579 5580 5581 5582 5582 5583 5583 5584 5585 5585 5586 5586 5586 5586 5586 5587 5588 5589 5590 5591 5592 5592 5593 5594 5595 5596 5598 5599 5601 5602
5563 5564 5565 5566 5567 5568 5568 5569 5569 5569 5569 5569 5570 5570 5571 5572 5572 5573 5573 5573 5574 5575 5575 5576 5576 5576 5576 5576 5577 5578 5579 5580 5581 5581 5582 5583 5584 5585 5585 5587 5589 5590 5591
5553 5553 5555 5556 5557 5558 5558 5557 5557 5558 5558 5559 5560 5560 5561 5561 5562 5563 5563 5564 5564 5565 5565 5565 5566 5566 5566 5566 5567 5567 5568 5569 5570 5570 5571 5572 5573 5574 5574 5576 5577 5578 5580
5541 5541 5543 5545 5546 5547 5547 5547 5547 5547 5547 5548 5549 5550 5551 5551 5552 5553 5554 5554 5554 5554 5554 5555 5555 5555 5554 5555 5555 5555 5556 5558 5558 5559 5560 5560 5561 5562 5563 5564 5565 5566 5568
5528 5529 5532 5534 5535 5537 5538 5538 5538 5537 5537 5539 5539 5540 5540 5540 5541 5543 5544 5544 5544 5544 5544 5544 5545 5544 5543 5544 5544 5543 5543 5544 5546 5548 5548 5549 5550 5551 5552 5552 5553 5555 5556
5516 5518 5521 5523 5524 5526 5527 5527 5526 5526 5526 5526 5527 5528 5529 5530 5531 5532 5534 5534 5534 5535 5535 5534 5534 5534 5533 5532 5534 5534 5533 5533 5533 5536 5537 5538 5539 5539 5540 5541 5542 5544 5545
5505 5506 5508 5510 5512 5514 5515 5515 5515 5515 5515 5516 5517 5517 5518 5519 5520 5522 5523 5523 5523 5524 5524 5524 5524 5524 5523 5522 5521 5522 5523 5523 5521 5522 5524 5525 5526 5527 5528 5530 5531 5532 5533
5492 5494 5496 5497 5499 5500 5501 5502 5503 5504 5504 5505 5505 5506 5507 5508 5509 5511 5512 5512 5512 5513 5513 5513 5512 5513 5513 5512 5511 5510 5510 5509 5509 5509 5511 5512 5513 5514 5516 5518 5519 5520 5522
5479 5480 5482 5484 5485 5487 5488 5489 5490 5491 5492 5492 5494 5494 5495 5496 5497 5499 5500 5500 5501 5501 5501 5501 5501 5501 5501 5501 5500 5500 5500 5499 5498 5496 5497 5498 5499 5502 5504 5506 5507 5509 5510